• In Deutschland
  • Länderverzeichnis
  • Für 7 Tage
  • Wassertemperatur
  • Satellitenkarten
  • Wetterkarte
  • Widgets
  • user-avatar
    Anmelden

    Stündliche Wetter Cobija

    Heute, 16 Juli, Montag

    Zeit Temperatur Niederschläge Wind Luftdruck Luftfeuchtigkeit
    00:00 +25°C° 0 mm 1 m/S 740 mmHg 77%
    01:00 +25°C° 0 mm 1 m/S 740 mmHg 79%
    02:00 +24°C° 0 mm 1 m/S 740 mmHg 81%
    03:00 +24°C° 0 mm 1 m/S 740 mmHg 82%
    04:00 +24°C° 0 mm 1 m/S 740 mmHg 84%
    05:00 +22°C° 0 mm 0 m/S 740 mmHg 83%
    06:00 +22°C° 0 mm 0 m/S 741 mmHg 82%
    07:00 +23°C° 0 mm 0 m/S 741 mmHg 81%
    08:00 +26°C° 0 mm 0 m/S 742 mmHg 69%
    09:00 +31°C° 0 mm 1 m/S 742 mmHg 58%
    10:00 +34°C° 0 mm 1 m/S 742 mmHg 47%
    11:00 +34°C° 0 mm 1 m/S 742 mmHg 45%
    12:00 +34°C° 0 mm 1 m/S 741 mmHg 43%
    13:00 +35°C° 0 mm 1 m/S 740 mmHg 41%
    14:00 +32°C° 0 mm 0 m/S 740 mmHg 44%
    15:00 +32°C° 0 mm 0 m/S 739 mmHg 47%
    16:00 +31°C° 0 mm 0 m/S 739 mmHg 49%
    17:00 +29°C° 0 mm 0 m/S 739 mmHg 55%
    18:00 +27°C° 0 mm 0 m/S 739 mmHg 60%
    19:00 +25°C° 0 mm 0 m/S 739 mmHg 65%
    20:00 +25°C° 0 mm 0 m/S 740 mmHg 67%
    21:00 +24°C° 0 mm 0 m/S 740 mmHg 68%
    22:00 +24°C° 0 mm 0 m/S 740 mmHg 70%
    23:00 +24°C° 0 mm 0 m/S 740 mmHg 72%

    Morgen, 17 Juli, Dienstag

    Zeit Temperatur Niederschläge Wind Luftdruck Luftfeuchtigkeit
    00:00 +23°C° 0 mm 0 m/S 740 mmHg 74%
    01:00 +23°C° 0 mm 0 m/S 740 mmHg 75%
    02:00 +22°C° 0,1 mm 0 m/S 740 mmHg 78%
    03:00 +22°C° 0,1 mm 0 m/S 740 mmHg 80%
    04:00 +22°C° 0,1 mm 0 m/S 740 mmHg 83%
    05:00 +22°C° 0 mm 0 m/S 740 mmHg 82%
    06:00 +23°C° 0 mm 0 m/S 741 mmHg 81%
    07:00 +23°C° 0 mm 0 m/S 741 mmHg 80%
    08:00 +26°C° 0 mm 0 m/S 742 mmHg 69%
    09:00 +29°C° 0 mm 0 m/S 742 mmHg 57%
    10:00 +33°C° 0 mm 0 m/S 742 mmHg 46%
    11:00 +33°C° 0 mm 0 m/S 741 mmHg 45%
    12:00 +33°C° 0 mm 0 m/S 740 mmHg 43%
    13:00 +33°C° 0 mm 0 m/S 740 mmHg 42%
    14:00 +32°C° 0 mm 0 m/S 739 mmHg 45%
    15:00 +32°C° 0 mm 0 m/S 738 mmHg 47%
    16:00 +31°C° 0 mm 0 m/S 738 mmHg 50%
    17:00 +29°C° 0 mm 0 m/S 738 mmHg 55%
    18:00 +27°C° 0 mm 0 m/S 738 mmHg 59%
    19:00 +26°C° 0 mm 0 m/S 738 mmHg 64%
    20:00 +25°C° 0 mm 0 m/S 739 mmHg 65%
    21:00 +25°C° 0 mm 0 m/S 739 mmHg 67%
    22:00 +24°C° 0 mm 0 m/S 739 mmHg 68%
    23:00 +24°C° 0 mm 0 m/S 739 mmHg 70%

    übermorgen, 18 Juli, Mittwoch

    Zeit Temperatur Niederschläge Wind Luftdruck Luftfeuchtigkeit
    00:00 +24°C° 0 mm 0 m/S 739 mmHg 71%
    01:00 +23°C° 0 mm 0 m/S 739 mmHg 72%
    02:00 +23°C° 0 mm 0 m/S 739 mmHg 73%
    03:00 +23°C° 0 mm 0 m/S 738 mmHg 75%
    04:00 +22°C° 0 mm 0 m/S 738 mmHg 76%
    05:00 +23°C° 0 mm 0 m/S 739 mmHg 76%
    06:00 +23°C° 0 mm 0 m/S 739 mmHg 75%
    07:00 +24°C° 0 mm 0 m/S 740 mmHg 74%
    08:00 +27°C° 0 mm 0 m/S 740 mmHg 65%
    09:00 +29°C° 0 mm 0 m/S 740 mmHg 55%
    10:00 +34°C° 0 mm 1 m/S 741 mmHg 45%
    11:00 +34°C° 0 mm 1 m/S 740 mmHg 45%
    12:00 +34°C° 0 mm 1 m/S 739 mmHg 46%
    13:00 +34°C° 0 mm 1 m/S 738 mmHg 46%
    14:00 +34°C° 0 mm 1 m/S 738 mmHg 46%
    15:00 +34°C° 0 mm 1 m/S 737 mmHg 46%
    16:00 +34°C° 0 mm 1 m/S 736 mmHg 45%
    17:00 +30°C° 0 mm 0 m/S 737 mmHg 52%
    18:00 +28°C° 0 mm 0 m/S 737 mmHg 58%
    19:00 +26°C° 0 mm 0 m/S 737 mmHg 65%
    20:00 +25°C° 0 mm 0 m/S 737 mmHg 67%
    21:00 +25°C° 0 mm 0 m/S 738 mmHg 68%
    22:00 +24°C° 0 mm 0 m/S 738 mmHg 70%
    23:00 +24°C° 0 mm 0 m/S 738 mmHg 72%

    19 Juli, Donnerstag

    Zeit Temperatur Niederschläge Wind Luftdruck Luftfeuchtigkeit
    00:00 +24°C° 0 mm 0 m/S 738 mmHg 73%
    01:00 +23°C° 0 mm 0 m/S 738 mmHg 75%
    02:00 +23°C° 0 mm 0 m/S 738 mmHg 77%
    03:00 +22°C° 0 mm 0 m/S 738 mmHg 79%
    04:00 +22°C° 0 mm 0 m/S 738 mmHg 81%
    05:00 +23°C° 0 mm 0 m/S 738 mmHg 80%
    06:00 +23°C° 0 mm 0 m/S 739 mmHg 79%
    07:00 +23°C° 0 mm 0 m/S 740 mmHg 79%
    08:00 +26°C° 0 mm 0 m/S 740 mmHg 68%
    09:00 +31°C° 0 mm 1 m/S 740 mmHg 57%
    10:00 +34°C° 0 mm 1 m/S 741 mmHg 46%
    11:00 +35°C° 0 mm 1 m/S 740 mmHg 43%
    12:00 +35°C° 0 mm 1 m/S 739 mmHg 40%
    13:00 +36°C° 0 mm 1 m/S 738 mmHg 37%
    14:00 +35°C° 0 mm 1 m/S 738 mmHg 40%
    15:00 +32°C° 0 mm 0 m/S 737 mmHg 43%
    16:00 +32°C° 0 mm 0 m/S 736 mmHg 47%
    17:00 +30°C° 0 mm 0 m/S 737 mmHg 52%
    18:00 +28°C° 0 mm 0 m/S 737 mmHg 57%
    19:00 +26°C° 0 mm 0 m/S 737 mmHg 62%
    20:00 +25°C° 0 mm 0 m/S 738 mmHg 64%
    21:00 +25°C° 0 mm 0 m/S 738 mmHg 66%
    22:00 +24°C° 0 mm 0 m/S 738 mmHg 68%
    23:00 +24°C° 0 mm 0 m/S 738 mmHg 69%

    20 Juli, Freitag

    Zeit Temperatur Niederschläge Wind Luftdruck Luftfeuchtigkeit
    00:00 +23°C° 0 mm 0 m/S 738 mmHg 71%
    01:00 +23°C° 0 mm 0 m/S 738 mmHg 72%
    02:00 +23°C° 0 mm 0 m/S 738 mmHg 73%
    03:00 +23°C° 0 mm 0 m/S 738 mmHg 74%
    04:00 +22°C° 0 mm 0 m/S 738 mmHg 75%
    05:00 +23°C° 0 mm 0 m/S 739 mmHg 74%
    06:00 +23°C° 0 mm 0 m/S 739 mmHg 74%
    07:00 +24°C° 0 mm 0 m/S 740 mmHg 73%
    08:00 +28°C° 0 mm 1 m/S 740 mmHg 64%
    09:00 +31°C° 0 mm 1 m/S 741 mmHg 54%
    10:00 +34°C° 0 mm 1 m/S 741 mmHg 45%
    11:00 +35°C° 0 mm 1 m/S 740 mmHg 43%
    12:00 +35°C° 0 mm 1 m/S 739 mmHg 41%
    13:00 +34°C° 0 mm 0 m/S 738 mmHg 40%
    14:00 +33°C° 0 mm 0 m/S 738 mmHg 43%
    15:00 +32°C° 0 mm 0 m/S 737 mmHg 46%
    16:00 +31°C° 0 mm 0 m/S 736 mmHg 49%
    17:00 +30°C° 0 mm 0 m/S 737 mmHg 54%
    18:00 +28°C° 0 mm 0 m/S 737 mmHg 58%
    19:00 +26°C° 0 mm 0 m/S 738 mmHg 62%
    20:00 +26°C° 0 mm 0 m/S 738 mmHg 63%
    21:00 +26°C° 0 mm 0 m/S 739 mmHg 64%
    22:00 +25°C° 0 mm 0 m/S 739 mmHg 66%
    23:00 +25°C° 0,1 mm 0 m/S 739 mmHg 70%

    21 Juli, Samstag

    Zeit Temperatur Niederschläge Wind Luftdruck Luftfeuchtigkeit
    00:00 +24°C° 0,1 mm 0 m/S 739 mmHg 74%
    01:00 +23°C° 0,1 mm 0 m/S 738 mmHg 78%
    02:00 +23°C° 0,6 mm 0 m/S 738 mmHg 82%
    03:00 +22°C° 0,6 mm 0 m/S 738 mmHg 86%
    04:00 +22°C° 0,6 mm 0 m/S 738 mmHg 91%
    05:00 +22°C° 0,9 mm 0 m/S 739 mmHg 92%
    06:00 +24°C° 0,9 mm 1 m/S 740 mmHg 94%
    07:00 +24°C° 0,9 mm 1 m/S 740 mmHg 96%
    08:00 +25°C° 0,8 mm 1 m/S 741 mmHg 90%
    09:00 +27°C° 0,8 mm 1 m/S 741 mmHg 84%
    10:00 +29°C° 0,8 mm 1 m/S 741 mmHg 79%
    11:00 +28°C° 2,2 mm 1 m/S 741 mmHg 82%
    12:00 +28°C° 2,2 mm 1 m/S 740 mmHg 86%
    13:00 +28°C° 2,2 mm 1 m/S 739 mmHg 90%
    14:00 +28°C° 0,8 mm 1 m/S 739 mmHg 90%
    15:00 +28°C° 0,8 mm 1 m/S 738 mmHg 91%
    16:00 +28°C° 0,8 mm 1 m/S 738 mmHg 91%
    17:00 +26°C° 0,4 mm 1 m/S 738 mmHg 94%
    18:00 +25°C° 0,4 mm 1 m/S 739 mmHg 96%
    19:00 +24°C° 0,4 mm 1 m/S 739 mmHg 98%
    20:00 +24°C° 0 mm 1 m/S 740 mmHg 98%
    21:00 +23°C° 0 mm 1 m/S 740 mmHg 99%
    22:00 +23°C° 0 mm 1 m/S 740 mmHg 99%
    23:00 +23°C° 0 mm 1 m/S 740 mmHg 99%
    Mehr zeigen